Overview Statistics Trail Chart Weather Telemetry Raw packets
 

This is the latest recevied weather packets stored in our database for station/object KI5RAB. If no packets are shown the sender has not sent any weather packets the latest 10 day(s).

<< 69 70 71 72 73 74 75 >>
Time Temp. Humidity Pressure Rain* Wind** Luminosity Snow
1788194952 32.22° C 61% 1020.5 hPa 0 mm - 658 W/m² -
1788194648 32.78° C 62% 1020.3 hPa 0 mm - 369 W/m² -
1788194343 32.78° C 61% 1020.5 hPa 0 mm - 627 W/m² -
1788194039 32.78° C 62% 1020.2 hPa 0 mm - 613 W/m² -
1788193737 32.22° C 65% 1020.2 hPa 0 mm - 605 W/m² -
1788193433 32.22° C 64% 1020.3 hPa 0 mm - 598 W/m² -
1788193131 32.22° C 65% 1020.5 hPa 0 mm - 602 W/m² -
1788192828 31.67° C 66% 1020.4 hPa 0 mm - 578 W/m² -
1788192523 31.67° C 67% 1020.4 hPa 0 mm - 559 W/m² -
1788192218 31.67° C 65% 1020.2 hPa 0 mm - 550 W/m² -
1788191913 31.11° C 67% 1020.4 hPa 0 mm - 543 W/m² -
1788191612 32.22° C 66% 1020.4 hPa 0 mm - 355 W/m² -
1788191308 31.11° C 67% 1020.6 hPa 0 mm - 522 W/m² -
1788191005 31.11° C 66% 1020.3 hPa 0 mm - 501 W/m² -
1788190703 31.11° C 69% 1020.4 hPa 0 mm - 491 W/m² -
1788190399 30.56° C 69% 1020.2 hPa 0 mm - 476 W/m² -
1788190095 31.11° C 69% 1020.5 hPa 0 mm - 479 W/m² -
1788189791 31.11° C 70% 1020.3 hPa 0 mm - 460 W/m² -
1788189486 30.56° C 72% 1020.1 hPa 0 mm - 443 W/m² -
1788189184 30.56° C 72% 1020.3 hPa 0 mm - 448 W/m² -
1788188880 30.56° C 72% 1020.3 hPa 0 mm - 417 W/m² -
1788188575 30.56° C 73% 1020.2 hPa 0 mm - 392 W/m² -
1788188274 30.56° C 73% 1020.2 hPa 0 mm - 411 W/m² -
1788187971 30.56° C 74% 1020.2 hPa 0 mm - 402 W/m² -
1788187666 30° C 75% 1020.3 hPa 0 mm - 163 W/m² -

* Rain latest hour (hover to see other rain measurements)
** Current wind speed in m/s (hover to see current wind gust speed)